Date,TemperatureHighF,TemperatureAvgF,TemperatureLowF,DewpointHighF,DewpointAvgF,DewpointLowF,HumidityHigh,HumidityAvg,HumidityLow,PressureMaxIn,PressureMinIn,WindSpeedMaxMPH,WindSpeedAvgMPH,GustSpeedMaxMPH,PrecipitationSumIn
2013-1-1,33.7,31.1,24.6,31.7,28.4,19.9,95,89,81,30.11,29.99,6,1,10,0.00
2013-1-2,28.9,22.6,15.0,19.9,16.8,12.5,90,79,64,30.29,30.08,4,0,10,0.05
2013-1-3,35.0,21.4,6.0,24.8,15.9,3.5,94,80,64,30.30,30.18,6,1,11,0.08
2013-1-4,35.1,30.4,28.0,25.9,23.5,21.0,82,76,65,30.29,30.18,6,2,10,0.01
2013-1-5,36.7,30.6,26.1,29.5,24.5,19.8,92,78,67,30.43,30.18,4,1,8,0.04
2013-1-6,39.6,35.2,29.0,33.6,30.1,25.4,89,82,71,30.23,30.02,4,0,9,0.13
2013-1-7,36.5,31.1,18.4,30.8,26.5,16.2,92,83,70,30.48,30.23,4,0,10,0.04
2013-1-8,45.9,27.9,14.5,33.6,23.1,12.4,96,84,59,30.42,30.29,3,0,7,0.04
2013-1-9,47.4,33.3,20.9,42.9,31.1,19.2,96,92,81,30.52,30.27,4,0,9,0.04
2013-1-10,42.3,33.8,23.7,35.6,29.2,22.2,96,84,69,30.64,30.31,2,0,5,0.00
2013-1-11,51.8,42.9,36.0,50.3,40.1,31.4,97,90,76,30.32,29.98,3,0,8,0.19
2013-1-12,63.8,49.9,37.2,59.0,48.3,36.2,98,94,82,30.11,29.96,3,0,6,0.01
2013-1-13,68.3,57.9,45.4,59.4,53.6,44.3,98,87,70,29.96,29.85,7,1,12,0.22
2013-1-14,57.5,41.0,32.9,56.7,35.8,27.0,97,82,67,30.37,29.87,10,2,18,0.05
2013-1-15,34.2,31.2,26.2,31.0,26.3,23.1,93,82,75,30.42,30.10,4,1,8,0.03
2013-1-16,35.4,33.9,32.8,34.4,32.5,31.0,96,95,91,30.11,29.91,4,0,6,0.38
2013-1-17,36.0,33.4,30.6,31.4,30.2,28.3,93,88,82,30.21,30.04,3,0,6,0.02
2013-1-18,32.7,28.4,20.6,29.0,18.8,11.0,89,67,58,30.53,30.16,9,3,16,0.01
2013-1-19,53.3,41.6,27.8,28.2,23.5,17.6,72,49,33,30.29,29.84,7,2,13,0.04
2013-1-20,47.8,37.5,25.3,34.3,23.7,15.9,71,58,46,30.14,29.78,9,4,18,0.00
2013-1-21,28.8,23.7,14.6,21.5,16.1,4.4,85,73,60,30.12,29.93,8,2,15,0.00
2013-1-22,16.1,12.0,8.7,6.4,3.2,0.9,77,67,57,30.34,30.08,7,3,13,0.00
2013-1-23,18.3,13.1,4.9,12.4,5.3,1.0,84,71,55,30.37,30.12,11,1,11,0.00
2013-1-24,24.1,17.7,9.4,14.5,10.0,1.4,89,73,41,30.59,30.10,9,3,16,0.01
2013-1-25,21.2,16.8,10.1,18.5,12.3,5.7,96,82,69,30.57,30.07,5,0,7,0.00
2013-1-26,30.0,23.7,12.8,25.1,20.0,9.1,92,86,77,30.49,30.13,4,0,8,0.05
2013-1-27,32.4,21.9,5.3,24.2,15.6,2.5,93,78,59,30.60,30.36,2,0,5,0.12
2013-1-28,49.6,40.0,31.1,48.7,38.1,24.2,100,93,74,30.36,30.03,2,0,7,0.45
2013-1-29,65.5,53.2,46.3,58.1,50.7,44.6,98,92,75,30.07,29.77,4,1,9,0.01
2013-1-30,69.6,56.9,47.3,59.5,53.2,45.5,96,88,66,29.78,29.21,9,2,14,0.97
2013-1-31,48.7,30.6,24.3,45.6,25.1,17.0,91,80,64,29.87,29.19,8,4,20,0.04